GOES 19

Last updated on Wed Sep 09 2026 00:02:41 GMT+0000 (Coordinated Universal Time)

1 60133U 24119A 26251.50150887 -.00000269 00000+0 00000+0 0 9996 2 60133 0.0129 269.1029 0000620 352.5189 191.2919 1.00271620 7803
UTC large
Height (km)
Speed (km/s)
/
Latitude / Longitude
Inclination (degrees)
Orbital Period (minutes)
Azimuth
Elevation
Range (km)
Doppler Factor

Next 0 passes for location: London (51.5072 / 0.1276)

No passes found over London.
GOES 19